Regional Weather Roundup
Issued by NWS

Home | Current Version | Previous Version | Text Only | Print | Product List | Glossary Off
Versions: 1 2 3 4 5 6 7 8 9 10 11 12 13 14 15 16 17 18 19 20 21 22 23 24 25 26 27 28 29 30 31 32 33 34 35 36 37 38 39 40 41 42 43 44 45 46 47 48 49 50

000
ASUS43 KFSD 262210
RWRSD

WEATHER ROUNDUP FOR SOUTH DAKOTA
NATIONAL WEATHER SERVICE SIOUX FALLS SD
400 PM CST SUN FEB 26 2017

NOTE: "FAIR" INDICATES FEW OR NO CLOUDS BELOW 12,000 FEET WITH NO
SIGNIFICANT WEATHER AND/OR OBSTRUCTIONS TO VISIBILITY.


SDZ001>005-009-010-012>017-262300-
NORTHWEST AND NORTH CENTRAL SOUTH DAKOTA

CITY           SKY/WX    TMP DP  RH WIND       PRES   REMARKS
BUFFALO          N/A     37  17  44 W22G32    29.65R
FAITH            N/A     38  16  40 W18       29.73R
MOBRIDGE       CLOUDY    39  20  46 NW7       29.73R
$$

SDZ012>016-024>037-041>051-057-063-072>074-262300-
SOUTHWEST AND SOUTH CENTRAL SOUTH DAKOTA

CITY           SKY/WX    TMP DP  RH WIND       PRES   REMARKS
RAPID CTY ARPT MOSUNNY   37  15  40 NE7       29.75S
PIERRE         CLOUDY    42  14  32 W13       29.77R
CUSTER         CLOUDY    24   5  44 W8        29.68F WCI  15
ELLSWORTH AFB  PTSUNNY   36  13  38 CALM      29.75R
PHILIP         PTSUNNY   42  12  29 NW16G23   29.77S
PINE RIDGE     CLOUDY    29  13  51 W10       29.82S WCI  20
SPEARFISH      FAIR      34  10  37 W14G20    29.72S WCI  24
WINNER         FAIR      38  22  52 SW15      29.82S
$$

SDZ004>011-016>023-039-040-262300-
NORTHEAST SOUTH DAKOTA

CITY           SKY/WX    TMP DP  RH WIND       PRES   REMARKS
ABERDEEN       MOSUNNY   32  19  58 S5        29.82F WCI  27
WATERTOWN      MOSUNNY   35  20  54 SW6       29.80S
BROOKINGS      MOSUNNY   39  19  44 W13       29.81
SISSETON         N/A     25  17  72 NE5       29.86R WCI  19
$$

SDZ017-020-022-023-036>040-048>070-262300-
SOUTHEAST SOUTH DAKOTA

CITY           SKY/WX    TMP DP  RH WIND       PRES   REMARKS
SIOUX FALLS    MOSUNNY   35  26  69 SW6       29.87R
HURON          PTSUNNY   45  15  30 W9G24     29.79F
CHAMBERLAIN    PTSUNNY   43  21  41 SW15      29.80S
MITCHELL       PTSUNNY   41  23  48 SW18      29.84S
YANKTON        SUNNY     36  21  55 S10       29.89S
$$

ABBREVIATIONS USED IN REMARKS
   TC - TEMPERATURE IN CELSIUS
  WCI - WIND CHILL INDEX
   HX - HEAT INDEX
  VSB - VISIBILITY





USA.gov is the U.S. government's official web portal to all federal, state and local government web resources and services.